Location: Csohesd
(46.2500°N, 22.6167°E)
Time: 06:14:20
(UTC+00:00)

Cosmos 2322 Rocket - Pass Details

Date: 21 October 2021
Orbit: 832 x 851 km, 71.0° (Epoch: 04 December)

Event Time Altitude Azimuth Distance (km) Brightness Sun altitude
Rises 17:05:24 0° 189° (S) 3,362 5.4 -16.7°
Reaches altitude 10° 17:07:52 10° 185° (S) 2,432 4.6 -17.2°
Maximum altitude 17:13:15 53° 110° (ESE) 1,019 2.2 -18.1°
Enters shadow 17:18:16 12° 36° (NE) 2,296 4.2 -19.0°
